sat.trackr.live / text

‹ back to catalog

STARLINK-5069

NORAD 55640 · 2023-021N

PAYLOAD ACTIVE UNKNOWN

§ Identity

Operator
Country
US
Launch date
2023-02-17
Launch site
AFWTR
Launch vehicle
Mass (kg)
RCS (m²)

Purposes: comms

External: N2YO · Heavens-Above · Gunter

§ Orbital elements

Epoch: 2026-09-20T13:41:27.085632Z

Period
96.11 min
Inclination
69.9999°
Eccentricity
0.0002646
Mean motion
14.98324844 rev/d
Perigee alt
570.2 km
Apogee alt
573.9 km
Semi-major
6,950.2 km
B*
1.6494e-4
RAAN
53.0521°
Arg perigee
273.9341°
Mean anomaly
86.1516°
Rev number
19,798

§ Raw data

STARLINK-50691 55640U 23021N   26263.57045238  .00001875  00000+0  16494-3 0  99982 55640  69.9999  53.0521 0002646 273.9341  86.1516 14.98324844197984

JSON: /api/v1/satellites/55640 · /tle

For live sub-satellite position, see the globe view (requires WebGL).

§ Visibility from observer

Set your observer location to see the next 7 days of passes ≥ 10°. The values pass through the URL so the page stays shareable.

No JS? Fill the form by hand. The geolocation button needs JavaScript.